Toluca Jose Maria, Mexico

3:30 AM CST on December 18, 2017 (GMT -0600)
Lic Adolfo Lopez Mateos International

Weather History for MMTO - June, 2014

Change the Weather History Date:

Tuesday, June 17, 2014

  Actual Average Record
Temperature  
Mean Temperature 61 °F -  
Max Temperature 69 °F 70 °F 78 °F (2002)
Min Temperature 53 °F 48 °F 42 °F (2001)
Degree Days  
Heating Degree Days 4    
Growing Degree Days 11 (Base 50)    
Moisture  
Dew Point 49 °F    
Average Humidity 68    
Maximum Humidity 88    
Minimum Humidity 40    
Precipitation  
Precipitation 0.00 in - - ()
Sea Level Pressure  
Sea Level Pressure 30.20 in    
Wind  
Wind Speed 3 mph ()    
Max Wind Speed 12 mph    
Max Gust Speed -    
Visibility 4.3 miles    
Events Rain    
Averages and records for this station are not official NWS values.
T = Trace of Precipitation, MM = Missing Value Source: Averaged Metar Reports

Daily Weather History Graph

Daily Weather History Graph

Search for Another Location

Airport or City:

Trip Planner

Search our weather history database for the weather conditions in past years. The results will help you decide how hot, cold, wet, or windy it might be!

Date:

Astronomy

Jun. 17, 2014 Rise Set
Actual Time 7:00 AM CDT 8:18 PM CDT
Civil Twilight 6:35 AM CDT 8:42 PM CDT
Nautical Twilight 6:06 AM CDT 9:11 PM CDT
Astronomical Twilight 5:36 AM CDT 9:41 PM CDT
Moon No Moon Rise 11:41 AM CDT (6/17)
Length of Visible Light 14h 06m
Length of Day
13h 17m
Waning Gibbous, 73% of the Moon is Illuminated
Jun 17
Waning Gibbous
Jun 19
Last Quarter
Jun 27
New
Jul 5
First Quarter
Jul 12
Full

Hourly Weather History & Observations

Time (CDT) Temp. Dew Point Humidity Pressure Visibility Wind Dir Wind Speed Gust Speed Precip Events Conditions
12:44 AM 59.0 °F 51.8 °F 77% 29.76 in 5.0 mi Calm Calm - N/A   Mostly Cloudy
1:42 AM 59.0 °F 50.0 °F 72% 30.39 in 6.0 mi NW 4.6 mph - N/A   Mostly Cloudy
2:19 AM 57.2 °F 50.0 °F 77% 30.39 in 2.0 mi NW 10.4 mph - N/A Rain Rain
2:40 AM 55.4 °F 48.2 °F 77% 30.39 in 2.0 mi WSW 8.1 mph - N/A Rain Rain
3:47 AM 55.4 °F 48.2 °F 77% 29.72 in 3.0 mi South 6.9 mph - N/A Rain Light Rain
4:42 AM 55.4 °F 50.0 °F 82% 30.31 in 3.0 mi Calm Calm - N/A Rain Light Rain
5:43 AM 53.6 °F 50.0 °F 88% 30.40 in 3.0 mi NE 5.8 mph - N/A Rain Light Rain
6:43 AM 53.6 °F 50.0 °F 88% 29.86 in 2.0 mi Calm Calm - N/A Rain Rain
7:49 AM 53.6 °F 50.0 °F 88% 30.41 in 2.0 mi Calm Calm - N/A Rain Light Rain
8:45 AM 55.4 °F 39.2 °F 54% 30.44 in 3.0 mi Calm Calm - N/A   Overcast
9:49 AM 57.2 °F 41.0 °F 55% 29.91 in 3.0 mi Calm Calm - N/A   Haze
10:43 AM 60.8 °F 50.0 °F 68% 30.44 in 3.0 mi Calm Calm - N/A   Haze
11:46 AM 64.4 °F 50.0 °F 59% 30.43 in 3.0 mi Calm Calm - N/A   Haze
12:48 PM 66.2 °F 46.4 °F 49% 29.79 in 4.0 mi South 3.5 mph - N/A   Mostly Cloudy
1:44 PM 68.0 °F 48.2 °F 49% 30.38 in 4.0 mi ENE 5.8 mph - N/A   Mostly Cloudy
2:41 PM 69.8 °F 46.4 °F 43% 30.37 in 5.0 mi East 4.6 mph - N/A   Mostly Cloudy
3:42 PM 69.8 °F 44.6 °F 40% 29.70 in 5.0 mi NNE 4.6 mph - N/A   Mostly Cloudy
4:45 PM 64.4 °F 50.0 °F 59% 30.32 in 6.0 mi NW 11.5 mph - N/A   Mostly Cloudy
5:47 PM 62.6 °F 50.0 °F 63% 30.33 in 6.0 mi SSW 6.9 mph - N/A   Mostly Cloudy
6:45 PM 62.6 °F 48.2 °F 59% 29.76 in 6.0 mi NW 3.5 mph - N/A   Overcast
7:42 PM 62.6 °F 50.0 °F 63% 30.34 in 6.0 mi East 5.8 mph - N/A   Mostly Cloudy
8:42 PM 60.8 °F 48.2 °F 63% 30.36 in 6.0 mi SSE 9.2 mph - N/A   Overcast
9:44 PM 57.2 °F 50.0 °F 77% 29.88 in 6.0 mi South 6.9 mph - N/A Rain Light Rain
10:42 PM 57.2 °F 51.8 °F 82% 30.40 in 7.0 mi Calm Calm - N/A   Overcast
11:42 PM 57.2 °F 51.8 °F 82% 30.40 in 7.0 mi Calm Calm - N/A   Overcast